When you browse on this site, cookies collect data to enhance your experience and personalize the content and advertising you see.
Visit our Privacy Policy to learn more. By continuing to use the site, you agree to this use of cookies and data.
  • In United Kingdom
  • List of Countries
  • For 7 days
  • Water Temperature
  • Weather Map
  • Weather Widgets
  • user-avatar
    Login

    Hourly Weather Brikama

    Today, 25 May, Monday

    Time Temperature Precipitation Wind Pressure Humidity
    00:00 +23°C° 0 mm 4 mps 757 mmHg 88%
    01:00 +23°C° 0 mm 4 mps 757 mmHg 88%
    02:00 +23°C° 0 mm 5 mps 756 mmHg 88%
    03:00 +23°C° 0 mm 4 mps 756 mmHg 89%
    04:00 +22°C° 0 mm 3 mps 756 mmHg 90%
    05:00 +23°C° 0 mm 2 mps 756 mmHg 91%
    06:00 +24°C° 0 mm 3 mps 757 mmHg 83%
    07:00 +26°C° 0 mm 4 mps 757 mmHg 76%
    08:00 +27°C° 0 mm 4 mps 758 mmHg 68%
    09:00 +29°C° 0 mm 4 mps 758 mmHg 57%
    10:00 +31°C° 0 mm 3 mps 758 mmHg 46%
    11:00 +34°C° 0 mm 3 mps 757 mmHg 36%
    12:00 +35°C° 0 mm 4 mps 757 mmHg 34%
    13:00 +36°C° 0 mm 5 mps 756 mmHg 33%
    14:00 +38°C° 0 mm 6 mps 755 mmHg 32%
    15:00 +35°C° 0 mm 6 mps 755 mmHg 40%
    16:00 +33°C° 0 mm 7 mps 754 mmHg 49%
    17:00 +29°C° 0 mm 8 mps 754 mmHg 58%
    18:00 +28°C° 0 mm 7 mps 755 mmHg 66%
    19:00 +26°C° 0 mm 6 mps 755 mmHg 74%
    20:00 +25°C° 0 mm 5 mps 756 mmHg 82%
    21:00 +25°C° 0 mm 4 mps 756 mmHg 85%
    22:00 +23°C° 0 mm 4 mps 757 mmHg 87%
    23:00 +23°C° 0 mm 4 mps 757 mmHg 89%

    Tomorrow, 26 May, Tuesday

    Time Temperature Precipitation Wind Pressure Humidity
    00:00 +23°C° 0 mm 4 mps 757 mmHg 88%
    01:00 +23°C° 0 mm 4 mps 756 mmHg 87%
    02:00 +23°C° 0 mm 5 mps 756 mmHg 86%
    03:00 +23°C° 0 mm 5 mps 756 mmHg 86%
    04:00 +22°C° 0 mm 5 mps 756 mmHg 87%
    05:00 +22°C° 0 mm 5 mps 756 mmHg 88%
    06:00 +25°C° 0 mm 5 mps 756 mmHg 79%
    07:00 +26°C° 0 mm 5 mps 757 mmHg 71%
    08:00 +27°C° 0 mm 5 mps 757 mmHg 63%
    09:00 +29°C° 0 mm 4 mps 757 mmHg 55%
    10:00 +32°C° 0 mm 4 mps 757 mmHg 46%
    11:00 +34°C° 0 mm 4 mps 757 mmHg 38%
    12:00 +35°C° 0 mm 5 mps 756 mmHg 38%
    13:00 +35°C° 0 mm 5 mps 755 mmHg 37%
    14:00 +36°C° 0 mm 6 mps 754 mmHg 36%
    15:00 +34°C° 0 mm 6 mps 754 mmHg 44%
    16:00 +32°C° 0 mm 7 mps 754 mmHg 51%
    17:00 +29°C° 0 mm 7 mps 754 mmHg 58%
    18:00 +28°C° 0 mm 6 mps 754 mmHg 67%
    19:00 +26°C° 0 mm 6 mps 755 mmHg 76%
    20:00 +25°C° 0 mm 5 mps 756 mmHg 84%
    21:00 +23°C° 0 mm 4 mps 756 mmHg 87%
    22:00 +23°C° 0 mm 4 mps 756 mmHg 89%
    23:00 +24°C° 0 mm 3 mps 757 mmHg 92%

    Day after tomorrow, 27 May, Wednesday

    Time Temperature Precipitation Wind Pressure Humidity
    00:00 +23°C° 0 mm 4 mps 756 mmHg 92%
    01:00 +23°C° 0 mm 4 mps 756 mmHg 92%
    02:00 +23°C° 0 mm 4 mps 756 mmHg 92%
    03:00 +22°C° 0 mm 4 mps 756 mmHg 92%
    04:00 +22°C° 0 mm 4 mps 756 mmHg 92%
    05:00 +22°C° 0 mm 3 mps 756 mmHg 92%
    06:00 +25°C° 0 mm 3 mps 756 mmHg 83%
    07:00 +26°C° 0 mm 2 mps 756 mmHg 74%
    08:00 +27°C° 0 mm 2 mps 757 mmHg 65%
    09:00 +30°C° 0 mm 3 mps 757 mmHg 55%
    10:00 +33°C° 0 mm 3 mps 757 mmHg 45%
    11:00 +36°C° 0 mm 4 mps 756 mmHg 36%
    12:00 +36°C° 0 mm 4 mps 756 mmHg 35%
    13:00 +37°C° 0 mm 5 mps 755 mmHg 34%
    14:00 +37°C° 0 mm 5 mps 755 mmHg 33%
    15:00 +35°C° 0 mm 6 mps 754 mmHg 39%
    16:00 +33°C° 0 mm 6 mps 754 mmHg 46%
    17:00 +30°C° 0 mm 6 mps 754 mmHg 52%
    18:00 +29°C° 0 mm 6 mps 755 mmHg 61%
    19:00 +27°C° 0 mm 5 mps 755 mmHg 71%
    20:00 +26°C° 0 mm 5 mps 756 mmHg 80%
    21:00 +25°C° 0 mm 5 mps 756 mmHg 83%
    22:00 +25°C° 0 mm 4 mps 757 mmHg 86%
    23:00 +25°C° 0 mm 4 mps 757 mmHg 88%

    28 May, Thursday

    Time Temperature Precipitation Wind Pressure Humidity
    00:00 +25°C° 0 mm 4 mps 756 mmHg 87%
    01:00 +25°C° 0 mm 4 mps 756 mmHg 86%
    02:00 +25°C° 0 mm 4 mps 755 mmHg 85%
    03:00 +25°C° 0 mm 4 mps 755 mmHg 87%
    04:00 +23°C° 0 mm 4 mps 756 mmHg 89%
    05:00 +23°C° 0 mm 4 mps 756 mmHg 91%
    06:00 +25°C° 0 mm 3 mps 756 mmHg 85%
    07:00 +26°C° 0 mm 3 mps 756 mmHg 78%
    08:00 +27°C° 0 mm 3 mps 757 mmHg 72%
    09:00 +29°C° 0 mm 3 mps 757 mmHg 61%
    10:00 +31°C° 0 mm 3 mps 757 mmHg 51%
    11:00 +34°C° 0 mm 3 mps 757 mmHg 40%
    12:00 +35°C° 0 mm 3 mps 756 mmHg 38%
    13:00 +36°C° 0 mm 4 mps 755 mmHg 35%
    14:00 +37°C° 0 mm 4 mps 754 mmHg 33%
    15:00 +35°C° 0 mm 5 mps 754 mmHg 38%
    16:00 +33°C° 0 mm 5 mps 754 mmHg 44%
    17:00 +32°C° 0 mm 6 mps 754 mmHg 49%
    18:00 +29°C° 0 mm 5 mps 754 mmHg 58%
    19:00 +27°C° 0 mm 5 mps 755 mmHg 68%
    20:00 +26°C° 0 mm 5 mps 756 mmHg 77%
    21:00 +26°C° 0 mm 5 mps 756 mmHg 79%
    22:00 +25°C° 0 mm 4 mps 756 mmHg 81%
    23:00 +25°C° 0 mm 4 mps 757 mmHg 83%

    29 May, Friday

    Time Temperature Precipitation Wind Pressure Humidity
    00:00 +25°C° 0 mm 3 mps 756 mmHg 86%
    01:00 +24°C° 0 mm 2 mps 756 mmHg 88%
    02:00 +24°C° 0 mm 1 mps 756 mmHg 90%
    03:00 +24°C° 0 mm 1 mps 756 mmHg 90%
    04:00 +24°C° 0 mm 1 mps 756 mmHg 91%
    05:00 +24°C° 0 mm 1 mps 756 mmHg 91%
    06:00 +25°C° 0 mm 2 mps 756 mmHg 83%
    07:00 +26°C° 0 mm 2 mps 756 mmHg 75%
    08:00 +28°C° 0 mm 2 mps 756 mmHg 66%
    09:00 +30°C° 0 mm 2 mps 756 mmHg 56%
    10:00 +34°C° 0 mm 3 mps 756 mmHg 45%
    11:00 +36°C° 0 mm 4 mps 756 mmHg 34%
    12:00 +36°C° 0 mm 4 mps 755 mmHg 34%
    13:00 +36°C° 0 mm 5 mps 755 mmHg 34%
    14:00 +36°C° 0 mm 6 mps 754 mmHg 34%
    15:00 +35°C° 0 mm 5 mps 754 mmHg 41%
    16:00 +33°C° 0 mm 5 mps 754 mmHg 47%
    17:00 +30°C° 0 mm 5 mps 753 mmHg 53%
    18:00 +29°C° 0 mm 5 mps 754 mmHg 60%
    19:00 +28°C° 0 mm 5 mps 755 mmHg 67%
    20:00 +27°C° 0 mm 4 mps 755 mmHg 73%
    21:00 +26°C° 0 mm 4 mps 756 mmHg 75%
    22:00 +26°C° 0 mm 3 mps 756 mmHg 76%
    23:00 +26°C° 0 mm 2 mps 757 mmHg 78%

    30 May, Saturday

    Time Temperature Precipitation Wind Pressure Humidity
    00:00 +26°C° 0.5 mm 2 mps 756 mmHg 78%
    01:00 +26°C° 0.5 mm 1 mps 756 mmHg 78%
    02:00 +26°C° 0.5 mm 1 mps 755 mmHg 78%
    03:00 +26°C° 0.3 mm 2 mps 755 mmHg 75%
    04:00 +26°C° 0.3 mm 2 mps 755 mmHg 73%
    05:00 +26°C° 0.3 mm 3 mps 755 mmHg 70%
    06:00 +27°C° 0.2 mm 3 mps 756 mmHg 67%
    07:00 +28°C° 0.2 mm 2 mps 756 mmHg 65%
    08:00 +28°C° 0.2 mm 2 mps 756 mmHg 62%
    09:00 +29°C° 0 mm 3 mps 756 mmHg 60%
    10:00 +30°C° 0 mm 3 mps 756 mmHg 58%
    11:00 +30°C° 0 mm 3 mps 756 mmHg 57%
    12:00 +30°C° 0 mm 3 mps 755 mmHg 56%
    13:00 +30°C° 0 mm 3 mps 755 mmHg 56%
    14:00 +30°C° 0 mm 3 mps 754 mmHg 56%
    15:00 +30°C° 0 mm 3 mps 754 mmHg 53%
    16:00 +32°C° 0 mm 4 mps 754 mmHg 50%
    17:00 +33°C° 0 mm 4 mps 754 mmHg 47%
    18:00 +30°C° 0 mm 4 mps 755 mmHg 54%
    19:00 +28°C° 0 mm 4 mps 755 mmHg 61%
    20:00 +26°C° 0 mm 4 mps 755 mmHg 68%
    21:00 +26°C° 0 mm 4 mps 756 mmHg 68%
    22:00 +26°C° 0 mm 5 mps 756 mmHg 68%
    23:00 +26°C° 0 mm 5 mps 756 mmHg 68%
    Show more